Wetbulb
65.47 61.90 62.58 61.11 52.89 50.66 47.45 47.16 50.54 49.33 50.86 53.55 56.81 53.58 52.57 53.27 50.88 50.37 67.12 70.16 70.83 70.53 71.17 70.82 71.65 71.92 71.85 71.93 71.80 71.23 70.21 69.25 68.87 68.62 68.45 68.07 67.96 68.11 68.45 68.70 69.46 69.53 70.58 70.74 69.77 68.78 67.51 66.56 65.73
61.40 60.25 61.39 57.76 49.43 45.75 46.13 49.42 47.78 50.60 53.33 53.87 53.88 54.27 52.94 53.56 59.35 62.09 66.71 69.96 71.07 70.96 70.96 71.03 70.87 72.53 71.94 72.08 71.70 71.24 70.45 69.03 68.65 68.39 67.90 67.39 67.12 67.09 67.30 67.85 68.63 69.34 70.31 69.90 69.23 68.04 66.40 65.59 65.33
60.97 58.87 57.17 53.32 49.77 45.77 45.77 48.89 49.97 52.05 53.92 53.26 52.61 55.72 55.07 55.04 60.53 64.20 69.12 70.23 70.99 70.87 71.17 71.45 71.32 72.55 71.92 71.78 71.80 71.27 70.63 68.96 68.37 67.62 66.85 66.09 65.74 65.55 66.02 67.12 67.68 68.64 69.62 68.94 67.68 66.25 65.37 64.83 64.92
59.31 57.84 55.78 49.31 47.28 48.70 48.52 49.82 51.31 52.32 51.80 52.86 53.99 52.21 57.23 61.26 63.31 66.22 70.07 70.40 70.43 70.65 71.29 70.27 71.91 72.55 71.97 71.69 71.74 71.30 70.24 69.02 68.57 67.88 66.95 65.53 64.73 64.47 64.91 66.31 66.71 67.24 68.14 67.02 65.42 64.30 63.98 64.02 64.26
59.16 56.76 50.14 48.13 47.70 49.12 50.53 50.90 51.70 51.34 51.23 51.81 53.69 51.83 54.41 60.54 64.68 66.60 69.86 70.21 69.98 69.57 70.58 71.46 71.27 71.79 71.74 71.64 71.33 71.22 70.59 69.09 68.81 68.15 67.70 65.83 64.11 63.73 64.20 65.11 65.51 66.09 65.49 64.30 63.23 62.77 62.76 63.11 63.18
53.76 54.76 47.81 46.16 47.59 49.11 50.58 51.60 51.63 51.65 51.33 52.61 52.27 51.95 55.08 62.15 63.36 65.83 69.58 70.26 70.57 70.08 70.63 71.31 68.30 69.49 70.30 71.15 70.89 70.71 70.44 69.69 68.92 68.13 67.58 66.16 64.00 63.40 63.74 64.16 64.36 64.64 63.82 62.41 61.46 61.57 62.04 62.48 62.21
53.30 51.16 47.53 48.18 47.02 47.74 49.72 52.39 51.57 51.59 50.71 50.94 54.11 50.72 56.33 59.50 62.88 65.77 68.52 69.51 70.53 70.49 69.99 70.23 69.75 69.31 67.28 68.60 68.94 69.39 69.59 69.43 69.08 68.38 67.69 66.56 65.25 64.39 63.72 63.56 63.19 63.07 62.20 60.99 60.30 60.78 61.58 61.98 62.09
54.30 52.11 47.94 48.67 46.89 46.71 50.91 51.57 52.78 52.08 50.44 54.25 55.70 50.77 52.06 58.64 63.68 65.78 67.49 67.83 69.47 69.03 69.42 69.65 69.74 70.22 70.39 70.42 66.20 67.14 67.95 68.27 68.19 67.04 65.57 64.41 64.05 63.62 63.00 62.18 62.34 61.44 60.69 59.74 59.49 60.25 61.12 61.37 61.24
53.13 48.22 45.89 47.21 47.43 48.41 51.04 50.05 51.34 53.09 51.91 52.50 54.84 54.16 57.42 61.37 64.06 65.19 65.87 66.63 67.61 67.67 69.08 69.60 68.90 69.38 69.59 69.97 67.98 65.34 65.70 66.07 65.52 64.28 62.38 61.92 63.27 62.66 62.25 60.58 61.27 60.61 59.80 59.13 59.21 59.91 60.02 59.27 59.30
51.09 48.00 47.79 50.11 50.26 48.93 50.24 50.56 51.06 49.79 50.41 50.84 52.47 54.74 56.38 62.19 62.53 63.18 63.65 64.04 65.51 67.36 68.12 69.09 69.13 68.99 69.23 69.13 69.71 69.68 69.52 68.70 67.64 65.93 64.49 66.84 65.58 64.32 61.22 58.60 59.47 59.87 59.33 58.58 58.53 59.04 59.27 58.70 58.37
50.78 47.86 50.02 49.06 49.20 49.85 49.77 49.49 51.22 49.64 49.24 51.62 51.48 53.62 54.42 59.92 61.23 61.82 63.16 63.77 64.88 66.94 68.34 68.75 69.35 69.76 69.98 69.27 69.88 70.03 69.54 69.51 68.88 67.04 66.01 66.45 63.86 62.55 61.24 58.74 58.47 57.87 56.53 56.10 56.08 56.75 57.49 58.04 58.17
45.79 48.28 48.11 49.13 49.08 48.93 48.62 50.54 49.28 50.04 51.42 53.04 53.92 54.62 54.86 57.79 59.82 61.04 62.16 63.31 64.58 65.99 67.29 68.72 69.35 69.66 70.33 70.23 69.68 69.84 69.63 69.66 68.52 68.31 66.54 64.86 63.29 61.25 59.81 58.98 59.40 58.97 59.58 58.65 58.31 57.15 56.84 56.38 56.41
46.69 47.38 47.35 48.71 48.78 49.24 49.26 48.78 49.42 50.23 52.67 53.57 52.53 52.67 54.26 55.32 58.80 60.91 62.49 63.67 64.66 64.78 66.59 67.89 68.95 68.86 68.90 69.49 69.44 69.78 68.94 69.41 69.12 67.76 65.67 64.34 62.64 61.77 61.04 58.67 58.07 58.18 58.70 58.33 56.74 55.84 54.82 54.14 53.49
49.09 48.30 48.25 49.05 48.89 48.85 47.09 48.46 48.18 50.11 52.85 52.52 52.29 51.86 52.87 54.01 55.87 58.97 60.96 62.18 63.42 65.07 65.92 67.10 67.56 67.88 67.29 68.10 67.87 68.73 69.04 69.02 69.45 67.56 66.74 64.52 63.74 62.25 60.35 58.30 57.24 57.27 57.26 57.71 56.70 54.95 53.25 51.87 49.92
48.88 46.52 48.12 48.49 48.82 48.07 49.18 46.37 46.55 50.74 51.15 50.81 51.50 51.79 52.57 53.34 54.75 56.35 59.79 61.56 63.52 64.85 65.28 65.77 65.79 66.97 67.04 66.49 67.35 68.25 69.13 68.81 68.66 68.37 67.74 65.80 65.01 61.65 60.05 58.27 57.62 56.41 57.69 57.81 55.07 52.84 49.67 47.06 45.58
46.28 46.65 42.79 47.69 48.05 48.37 48.37 42.96 49.52 50.82 51.40 50.29 51.10 51.97 52.51 53.19 53.62 55.43 58.35 60.97 62.83 64.27 64.10 65.24 64.36 64.56 65.07 65.27 66.02 66.79 68.10 68.25 68.28 68.19 68.11 66.18 64.65 63.14 59.77 58.10 56.76 57.77 56.89 55.03 52.55 48.51 43.54 42.44 42.97
46.00 41.11 43.08 44.95 48.01 47.44 46.88 45.38 49.34 50.35 49.53 49.59 51.06 52.05 52.51 53.04 53.84 54.45 56.37 59.51 60.84 63.13 63.78 64.10 63.76 62.68 63.40 63.96 64.73 64.90 66.21 67.05 66.84 67.13 66.49 67.28 64.72 63.16 60.65 58.71 57.69 57.61 54.55 52.68 49.99 45.32 43.00 41.30 41.90
41.36 41.88 42.96 42.90 45.60 45.39 45.34 45.22 48.37 50.21 49.98 49.89 50.45 51.11 51.75 52.59 53.48 54.66 54.92 56.99 59.99 62.25 63.30 63.29 63.00 61.84 62.26 63.18 63.11 63.77 64.79 65.23 65.41 64.51 65.13 64.55 63.37 62.14 60.89 58.48 56.69 53.75 53.34 51.72 47.37 43.27 42.65 41.22 41.11
43.93 42.72 41.99 44.25 45.77 43.68 44.11 44.53 46.46 48.85 49.24 49.16 49.94 50.51 50.98 51.74 53.96 55.59 55.73 55.58 57.30 59.81 60.33 61.41 61.34 60.74 61.18 60.71 60.05 60.70 61.71 60.05 59.87 60.94 60.57 62.82 62.52 61.38 61.11 59.08 54.59 51.97 50.80 49.46 45.13 42.87 41.71 39.74 40.84
43.70 41.77 41.65 44.51 46.04 42.95 43.83 43.52 46.67 48.10 48.63 49.52 49.75 50.25 51.06 51.64 52.71 54.30 55.39 55.44 54.82 56.04 58.35 58.75 58.76 58.67 58.65 58.91 58.91 59.04 59.26 58.90 58.39 55.62 55.74 55.95 58.34 60.06 57.83 55.65 53.46 50.30 49.44 46.66 43.19 41.66 39.64 38.68 40.32
42.57 41.50 41.78 41.74 44.22 44.54 42.82 42.00 44.74 47.95 49.15 49.70 50.21 51.21 51.57 51.56 51.87 53.11 54.72 54.76 54.97 54.18 55.60 56.32 57.00 57.04 57.31 57.86 57.96 57.67 57.32 56.53 54.30 52.73 52.65 50.99 52.26 55.33 54.92 54.13 52.18 49.69 49.23 46.57 42.28 41.97 40.27 36.76 39.03
39.39 44.53 43.32 42.10 40.36 37.02 43.03 35.78 42.59 45.01 46.16 48.05 49.44 50.28 50.83 52.11 52.87 53.15 53.74 54.89 54.22 54.40 55.10 55.33 56.02 56.23 56.76 57.54 56.45 55.73 53.16 51.35 52.43 54.01 52.45 50.13 48.56 50.17 51.53 52.06 51.47 49.23 49.05 48.76 43.12 42.44 43.27 40.47 37.77
41.63 44.05 42.76 42.19 40.37 39.98 40.07 36.58 40.79 44.91 43.62 45.65 48.14 50.94 52.03 53.47 53.59 53.09 53.30 53.88 54.52 54.64 54.56 54.82 54.91 55.11 55.86 56.49 56.21 55.06 52.45 54.21 55.25 55.09 51.69 47.85 45.34 48.01 46.74 48.47 49.52 48.48 48.91 48.48 44.56 43.02 42.97 41.74 41.03
44.44 42.62 41.89 41.54 40.24 33.52 38.96 38.90 39.15 42.62 44.57 46.33 48.50 50.08 50.95 50.84 51.69 51.64 51.94 52.22 52.21 54.05 53.80 54.11 53.49 53.62 55.07 55.49 55.59 54.49 53.48 54.18 54.74 53.88 49.32 45.05 43.07 41.88 45.38 43.88 44.90 45.83 46.74 46.05 44.68 43.87 44.40 43.10 43.83
42.92 39.92 33.58 32.35 32.11 32.12 40.01 38.26 40.37 44.74 46.61 47.25 47.71 49.70 50.59 50.19 50.88 51.16 50.21 49.08 49.42 50.23 50.77 51.71 51.88 51.91 53.69 54.45 54.43 54.05 53.98 54.63 54.48 53.90 51.36 45.84 42.58 39.82 39.33 42.74 43.40 44.04 45.40 45.19 45.79 44.32 44.20 42.48 43.52
39.75 40.28 35.45 30.15 31.20 34.71 35.43 33.07 39.83 46.65 47.65 48.51 49.28 50.02 50.64 50.23 50.13 50.58 51.21 50.07 49.04 48.67 49.45 50.06 50.37 50.76 52.39 53.20 53.20 53.22 53.84 54.24 54.15 52.76 51.80 49.92 46.63 44.73 42.20 39.11 40.72 42.86 44.72 45.14 44.55 43.70 42.88 43.29 43.04
39.36 36.17 42.52 36.42 33.81 31.66 36.22 40.56 44.50 46.11 45.63 47.13 47.83 49.02 49.44 50.79 50.69 50.65 51.10 49.20 48.85 48.36 48.85 49.58 49.77 50.53 51.32 52.13 52.33 51.99 52.81 53.17 53.21 52.36 52.02 50.09 50.18 48.42 43.95 39.66 37.46 39.19 39.09 40.92 42.03 41.44 40.97 40.99 41.72
41.15 43.58 34.92 36.06 30.11 28.08 33.94 36.80 38.37 43.48 45.02 47.34 46.98 47.84 49.08 50.23 50.80 50.01 48.84 48.20 48.29 48.76 49.07 49.62 50.06 49.69 50.63 51.85 51.25 50.98 51.56 52.22 52.43 51.38 49.13 47.79 46.69 43.62 39.59 36.80 36.58 34.89 37.07 37.53 38.72 38.00 36.47 36.96 38.10
37.88 36.77 37.91 38.73 36.27 31.51 30.32 35.70 44.89 45.45 46.34 46.46 47.81 48.15 48.29 49.10 50.38 50.08 48.39 47.91 47.88 48.16 48.37 48.60 49.08 49.20 49.41 50.74 50.17 50.09 50.16 50.90 50.54 50.04 48.65 46.41 43.29 38.36 36.04 33.81 33.19 32.61 33.39 34.90 36.37 35.20 34.97 34.59 34.56
41.31 39.61 39.45 34.51 32.20 35.28 34.19 35.37 46.44 46.77 45.90 46.38 47.27 47.66 48.26 47.66 49.69 49.84 48.13 47.31 46.85 47.31 47.69 47.96 48.73 48.90 49.42 49.73 49.00 48.77 48.81 48.45 47.96 47.59 46.24 43.56 39.41 36.15 35.17 33.36 32.73 31.94 32.47 33.30 33.88 33.49 33.72 33.26 31.29
MSLP
1013.10 1012.00 1011.47 1010.79 1009.94 1009.07 1008.64 1009.58 1010.15 1010.70 1011.19 1011.79 1011.91 1012.19 1012.38 1012.68 1012.92 1014.21 1015.18 1015.26 1015.58 1016.43 1017.25 1018.45 1019.05 1019.37 1019.54 1019.75 1019.89 1020.10 1020.30 1020.23 1020.41 1020.50 1020.63 1020.81 1020.74 1020.92 1020.97 1020.83 1020.76 1020.74 1020.66 1020.77 1021.10 1021.36 1021.47 1021.63 1021.66
1012.19 1011.97 1011.20 1009.91 1009.12 1008.12 1008.26 1009.45 1010.24 1010.74 1011.62 1012.27 1012.68 1012.90 1012.68 1012.82 1013.87 1014.70 1015.09 1015.66 1015.77 1016.41 1017.27 1018.03 1019.07 1019.37 1019.64 1019.82 1019.99 1020.22 1020.36 1020.59 1020.69 1020.80 1021.01 1021.08 1021.20 1021.26 1021.33 1021.25 1021.20 1021.13 1021.10 1021.29 1021.66 1021.91 1022.08 1022.17 1022.25
1012.52 1011.97 1010.27 1009.38 1008.96 1008.23 1008.58 1009.62 1009.99 1011.32 1012.23 1012.40 1012.57 1013.14 1012.94 1013.24 1014.22 1014.60 1014.81 1015.63 1015.86 1016.41 1017.13 1017.88 1018.98 1019.39 1019.74 1019.93 1020.18 1020.42 1020.66 1020.89 1020.98 1021.05 1021.33 1021.48 1021.61 1021.64 1021.72 1021.73 1021.60 1021.71 1021.66 1021.83 1022.27 1022.49 1022.73 1022.71 1022.70
1011.75 1011.13 1010.47 1009.59 1008.58 1008.89 1009.42 1009.75 1010.34 1011.64 1012.51 1012.76 1012.65 1012.59 1013.82 1014.27 1014.22 1014.64 1015.33 1015.59 1015.96 1016.53 1017.03 1018.43 1019.00 1019.32 1019.70 1020.00 1020.25 1020.50 1020.76 1021.05 1021.23 1021.44 1021.67 1021.91 1022.01 1022.05 1022.03 1022.04 1022.15 1022.08 1022.36 1022.64 1022.98 1023.13 1023.21 1023.15 1023.22
1011.66 1010.50 1009.63 1009.22 1008.93 1009.41 1009.96 1010.30 1010.84 1011.39 1011.81 1012.32 1012.84 1012.53 1013.31 1014.70 1015.02 1015.48 1015.57 1015.75 1015.97 1016.67 1017.22 1018.43 1019.08 1019.40 1019.72 1020.06 1020.42 1020.65 1020.90 1021.26 1021.47 1021.67 1021.92 1022.13 1022.34 1022.38 1022.44 1022.51 1022.68 1022.65 1023.07 1023.37 1023.56 1023.58 1023.57 1023.65 1023.70
1010.79 1010.34 1009.49 1008.87 1008.70 1009.60 1010.15 1010.62 1010.97 1011.22 1011.73 1012.40 1012.90 1012.76 1013.23 1014.39 1015.16 1015.42 1015.68 1015.77 1015.89 1016.77 1017.63 1018.25 1019.19 1019.51 1019.79 1020.11 1020.48 1020.81 1021.11 1021.43 1021.69 1021.87 1022.11 1022.38 1022.58 1022.62 1022.76 1022.92 1023.04 1023.26 1023.61 1023.79 1023.88 1023.98 1024.05 1024.14 1024.24
1010.65 1010.16 1009.39 1009.09 1009.20 1009.71 1010.05 1010.91 1011.03 1011.19 1011.71 1012.16 1012.63 1012.55 1013.40 1014.48 1014.88 1015.41 1015.75 1015.86 1015.81 1016.48 1017.58 1018.07 1018.84 1019.45 1019.90 1020.22 1020.60 1020.95 1021.30 1021.60 1021.90 1022.14 1022.41 1022.65 1022.79 1022.91 1023.08 1023.29 1023.51 1023.78 1023.98 1024.16 1024.26 1024.29 1024.44 1024.60 1024.58
1011.21 1010.47 1009.57 1009.51 1009.27 1009.52 1010.45 1011.10 1011.23 1011.27 1011.65 1012.74 1013.02 1012.44 1012.83 1013.90 1014.89 1015.44 1015.68 1015.83 1015.98 1016.69 1017.39 1017.76 1018.42 1019.09 1019.57 1020.14 1020.63 1020.96 1021.34 1021.70 1021.99 1022.40 1022.66 1022.89 1023.10 1023.30 1023.57 1023.75 1024.01 1024.20 1024.39 1024.54 1024.64 1024.78 1024.94 1025.11 1025.11
1011.81 1010.72 1009.59 1009.43 1009.71 1009.83 1010.80 1011.13 1011.75 1011.98 1012.04 1012.68 1013.06 1013.28 1013.96 1014.12 1015.23 1015.44 1015.71 1015.88 1016.11 1016.93 1017.19 1017.48 1018.04 1018.55 1019.01 1019.60 1020.40 1020.95 1021.26 1021.71 1022.13 1022.51 1022.81 1022.95 1023.08 1023.38 1023.52 1024.11 1024.35 1024.54 1024.75 1024.96 1025.18 1025.42 1025.69 1025.81 1025.79
1011.49 1010.71 1009.77 1009.76 1010.06 1010.42 1010.95 1011.19 1011.28 1012.09 1011.97 1012.21 1012.74 1013.61 1014.57 1014.74 1015.23 1015.30 1015.51 1015.68 1016.00 1016.56 1016.89 1017.16 1017.86 1018.34 1018.79 1019.30 1019.96 1020.49 1021.05 1021.41 1021.76 1022.18 1022.51 1022.27 1022.66 1023.20 1023.87 1024.52 1024.74 1024.94 1025.18 1025.47 1025.68 1025.80 1025.88 1025.74 1025.89
1011.40 1010.78 1010.38 1010.70 1011.23 1011.54 1011.39 1011.57 1011.65 1011.64 1011.10 1011.25 1011.53 1012.37 1014.06 1014.62 1014.91 1015.02 1015.22 1015.40 1015.73 1016.05 1016.61 1017.03 1017.51 1018.05 1018.39 1018.95 1019.59 1019.99 1020.52 1020.84 1021.22 1021.72 1022.31 1022.46 1022.99 1023.60 1024.21 1024.73 1024.93 1025.27 1025.44 1025.55 1025.78 1025.85 1025.81 1026.02 1026.17
1011.62 1011.43 1011.52 1011.83 1012.21 1012.29 1012.07 1011.86 1011.60 1011.59 1010.80 1011.22 1011.36 1011.78 1012.99 1013.90 1014.17 1014.31 1014.52 1014.75 1015.25 1015.67 1016.14 1016.84 1016.99 1017.50 1017.92 1018.63 1019.18 1019.52 1019.95 1020.35 1020.76 1021.45 1022.12 1022.66 1023.10 1023.68 1024.23 1024.53 1024.70 1024.93 1024.97 1025.30 1025.62 1026.08 1026.50 1026.75 1026.89
1011.81 1011.64 1012.14 1012.48 1012.80 1012.80 1012.93 1012.27 1011.71 1010.90 1010.99 1011.25 1011.89 1012.27 1012.53 1013.18 1013.42 1013.77 1013.99 1014.38 1014.70 1015.25 1015.71 1016.45 1017.11 1017.58 1018.05 1018.38 1018.53 1018.95 1019.50 1020.00 1020.49 1021.00 1021.70 1022.43 1023.01 1023.26 1023.75 1024.55 1024.86 1025.03 1025.19 1025.43 1025.87 1026.32 1026.68 1027.14 1027.51
1012.12 1012.33 1012.23 1012.52 1012.73 1012.99 1013.05 1012.20 1012.31 1010.57 1010.74 1010.81 1011.28 1011.90 1012.22 1012.44 1012.73 1013.13 1013.58 1013.77 1014.18 1014.78 1015.41 1016.20 1016.83 1017.25 1017.88 1017.92 1018.49 1018.39 1018.81 1019.28 1020.12 1020.87 1021.38 1021.83 1022.49 1023.01 1023.57 1024.15 1024.74 1025.17 1025.42 1025.51 1025.92 1026.29 1026.89 1027.42 1027.99
1012.55 1012.35 1012.14 1012.15 1012.65 1012.87 1013.14 1012.12 1011.16 1010.51 1010.80 1010.79 1010.88 1011.28 1011.45 1011.64 1012.12 1012.31 1012.70 1013.34 1013.77 1014.36 1015.17 1015.73 1016.40 1016.71 1017.16 1017.69 1017.93 1018.21 1018.50 1018.74 1019.28 1020.13 1020.70 1021.32 1021.98 1022.74 1023.36 1023.87 1024.45 1024.89 1025.06 1025.40 1026.01 1026.65 1027.37 1027.92 1028.51
1012.24 1012.29 1011.52 1011.30 1012.62 1013.10 1013.19 1010.78 1009.86 1010.18 1009.94 1010.27 1010.28 1010.15 1010.37 1010.88 1011.35 1011.78 1012.21 1012.84 1013.46 1014.04 1014.60 1015.38 1016.10 1016.49 1016.85 1017.21 1017.65 1017.89 1018.02 1018.59 1018.96 1019.40 1020.01 1020.67 1021.40 1022.12 1022.95 1023.57 1024.10 1024.53 1024.92 1025.46 1026.21 1027.03 1028.00 1028.19 1028.72
1011.75 1011.02 1011.08 1011.56 1012.50 1012.76 1012.80 1010.61 1009.80 1010.30 1010.42 1009.97 1009.66 1009.45 1009.42 1009.73 1010.32 1011.03 1011.58 1012.09 1012.72 1013.20 1014.00 1014.68 1015.51 1016.10 1016.53 1016.93 1017.18 1017.62 1017.90 1018.27 1018.94 1019.50 1019.79 1019.93 1020.79 1021.57 1022.26 1022.91 1023.65 1024.17 1024.78 1025.45 1026.15 1027.25 1027.80 1027.95 1028.70
1010.55 1011.03 1011.03 1011.59 1012.46 1012.92 1012.22 1010.97 1010.31 1009.89 1009.64 1009.30 1009.16 1008.92 1008.68 1008.76 1009.14 1009.82 1010.73 1011.34 1011.85 1012.46 1013.22 1014.03 1014.79 1015.51 1016.14 1016.71 1017.05 1017.29 1017.51 1017.94 1018.46 1019.19 1019.51 1019.83 1020.38 1021.10 1021.85 1022.46 1023.24 1024.03 1024.53 1025.37 1026.29 1026.90 1027.82 1027.98 1028.37
1011.20 1011.13 1011.10 1011.19 1012.26 1012.68 1011.66 1010.36 1009.66 1009.31 1008.79 1008.37 1008.13 1007.98 1007.68 1007.54 1007.95 1008.76 1009.46 1010.49 1011.28 1011.91 1012.61 1013.22 1014.07 1014.92 1015.62 1016.13 1016.55 1016.85 1017.11 1018.23 1018.85 1019.03 1019.54 1019.56 1019.97 1020.55 1021.21 1021.88 1022.88 1023.70 1024.52 1025.24 1026.18 1026.50 1027.50 1027.89 1028.40
1011.80 1011.65 1011.35 1011.37 1011.85 1012.91 1011.48 1009.74 1009.03 1008.75 1007.93 1007.68 1007.49 1006.93 1006.57 1006.52 1006.85 1007.47 1008.48 1009.47 1010.37 1010.96 1011.67 1012.53 1013.26 1014.22 1014.98 1015.48 1016.04 1016.54 1016.91 1017.66 1018.51 1019.32 1019.44 1019.70 1019.81 1020.10 1020.91 1021.60 1022.31 1023.15 1024.62 1025.37 1025.98 1026.50 1027.22 1027.81 1028.02
1011.97 1011.66 1011.61 1011.73 1012.22 1012.40 1011.72 1009.45 1007.77 1006.99 1007.08 1006.94 1006.75 1006.25 1006.07 1006.04 1006.23 1006.57 1007.27 1008.52 1009.71 1010.49 1011.10 1011.67 1012.38 1013.26 1014.08 1014.94 1015.68 1016.31 1016.87 1017.50 1018.33 1018.95 1019.28 1019.66 1019.90 1020.09 1020.55 1021.19 1021.80 1022.72 1023.88 1024.35 1024.88 1026.02 1025.85 1026.65 1027.62
1012.15 1011.88 1012.34 1012.39 1012.70 1011.77 1011.77 1008.64 1007.13 1006.43 1005.88 1005.91 1005.86 1005.42 1005.20 1005.31 1005.65 1006.27 1006.82 1007.47 1008.77 1009.69 1010.70 1011.33 1011.89 1012.58 1013.39 1014.19 1014.81 1015.36 1016.21 1016.79 1017.32 1017.93 1018.77 1019.36 1019.83 1020.24 1020.35 1020.86 1021.50 1022.18 1022.82 1023.79 1024.10 1024.99 1025.43 1025.26 1026.28
1012.84 1012.95 1013.02 1013.12 1012.94 1012.25 1011.18 1010.39 1006.71 1005.89 1005.10 1005.15 1004.90 1004.64 1004.65 1004.78 1005.31 1005.94 1006.59 1007.42 1008.03 1009.18 1010.04 1010.78 1011.48 1012.10 1012.81 1013.54 1014.18 1014.89 1015.68 1015.93 1016.33 1017.20 1018.17 1019.01 1019.69 1020.13 1020.39 1020.67 1021.15 1021.74 1022.18 1022.83 1023.38 1024.48 1024.52 1025.20 1025.80
1013.84 1013.85 1013.92 1013.83 1013.41 1011.72 1009.96 1009.01 1005.63 1005.24 1004.14 1004.37 1004.20 1004.19 1004.75 1005.35 1005.97 1006.55 1007.22 1007.87 1008.55 1009.30 1010.16 1010.94 1011.48 1011.96 1012.61 1013.32 1013.94 1014.47 1014.95 1015.34 1015.78 1016.61 1017.65 1018.50 1019.39 1020.07 1020.23 1020.68 1021.02 1021.52 1022.11 1022.49 1022.85 1023.57 1023.89 1024.32 1025.19
1014.07 1013.86 1013.63 1013.42 1012.96 1010.30 1009.54 1008.33 1005.43 1004.98 1004.36 1004.55 1004.43 1004.33 1005.12 1005.93 1006.37 1006.88 1007.65 1008.48 1009.12 1009.80 1010.54 1011.03 1011.51 1011.95 1012.58 1013.06 1013.53 1014.13 1014.54 1014.87 1015.26 1015.84 1016.71 1017.87 1018.73 1019.34 1019.84 1020.21 1020.70 1021.22 1021.68 1022.20 1022.60 1023.07 1023.59 1023.68 1024.36
1013.50 1012.88 1012.39 1011.83 1011.67 1010.39 1010.18 1007.39 1004.77 1004.77 1004.83 1004.55 1004.40 1004.40 1005.08 1005.79 1006.64 1007.07 1007.56 1008.40 1009.18 1009.93 1010.59 1011.14 1011.35 1011.60 1012.22 1012.79 1013.25 1013.75 1014.02 1014.26 1014.62 1015.36 1016.00 1016.79 1017.54 1018.13 1018.96 1019.69 1020.14 1020.62 1021.09 1021.71 1022.21 1022.80 1023.22 1023.47 1024.09
1013.16 1012.86 1012.30 1012.32 1012.26 1011.77 1009.01 1006.05 1004.84 1004.71 1004.69 1004.29 1004.55 1004.70 1004.98 1005.72 1006.42 1006.89 1007.48 1008.50 1009.19 1009.91 1010.39 1010.93 1011.46 1011.70 1011.89 1012.35 1013.02 1013.38 1013.64 1013.96 1014.26 1014.96 1015.56 1016.26 1016.71 1017.21 1018.09 1019.18 1019.87 1020.35 1020.95 1021.45 1021.83 1022.39 1022.84 1023.41 1023.96
1012.20 1011.89 1012.63 1012.52 1011.97 1010.93 1007.93 1006.42 1004.32 1004.27 1004.25 1004.06 1004.46 1004.80 1005.04 1005.60 1006.09 1007.03 1007.85 1008.77 1009.41 1009.95 1010.42 1010.75 1011.19 1011.50 1011.88 1012.22 1012.80 1013.11 1013.32 1013.67 1014.07 1014.61 1015.18 1015.81 1016.35 1016.95 1017.70 1018.54 1019.31 1019.93 1020.61 1021.04 1021.65 1022.03 1022.52 1023.31 1023.72
1012.62 1012.13 1011.98 1011.66 1011.22 1009.83 1008.30 1005.48 1004.58 1004.19 1004.42 1004.65 1004.83 1005.25 1005.75 1005.99 1006.25 1007.13 1007.91 1008.75 1009.34 1009.91 1010.34 1010.63 1010.98 1011.32 1011.74 1012.19 1012.77 1013.10 1013.39 1013.66 1014.19 1014.58 1015.16 1015.73 1016.35 1016.87 1017.45 1018.24 1018.95 1019.60 1020.04 1020.56 1021.13 1021.72 1021.88 1022.57 1023.12
1011.92 1010.96 1011.26 1010.68 1010.46 1010.38 1009.04 1005.17 1004.99 1005.11 1005.29 1005.42 1005.56 1005.72 1005.99 1006.66 1006.73 1007.13 1008.14 1008.91 1009.45 1009.82 1010.32 1010.68 1011.04 1011.37 1011.68 1011.98 1012.45 1012.73 1013.13 1013.68 1014.14 1014.57 1015.16 1015.73 1016.42 1017.13 1017.70 1018.40 1019.04 1019.63 1020.03 1020.36 1020.61 1021.36 1021.48 1022.07 1022.44
Wind_Speed
13 7 5 5 7 5 1 4 3 6 5 5 1 1 5 7 8 5 8 8 16 15 15 13 10 11 12 13 12 12 12 13 13 13 14 13 14 13 13 12 13 12 14 19 20 20 19 19 19
7 6 5 3 7 5 6 5 5 6 7 4 3 4 3 6 4 9 12 8 15 14 14 14 11 12 14 12 12 13 12 13 13 14 14 14 14 14 13 12 12 12 16 19 19 19 18 18 19
8 6 5 3 4 5 5 2 5 7 5 5 3 3 3 4 4 13 11 13 14 14 14 14 12 13 14 12 11 13 12 13 13 14 14 14 14 14 14 13 13 14 17 19 19 18 17 18 18
5 4 4 8 4 2 4 1 5 9 4 2 2 4 3 4 10 7 12 15 14 13 13 15 13 14 14 13 11 14 13 13 13 14 14 14 14 15 15 15 15 15 18 19 18 17 17 18 18
5 3 7 6 4 2 1 1 5 8 6 7 5 2 1 6 8 8 13 14 14 12 10 14 11 12 14 13 12 13 13 13 13 14 14 15 15 15 15 16 15 16 17 17 17 18 18 18 18
5 4 7 8 3 1 2 4 7 8 4 6 5 3 4 9 10 10 12 13 13 14 10 13 11 10 12 12 12 13 14 14 13 14 14 15 15 16 16 16 16 17 17 17 18 19 19 19 17
8 7 11 6 5 4 3 6 8 8 7 7 2 5 6 11 10 11 12 12 14 14 11 12 13 12 8 10 11 12 13 13 13 13 13 14 14 14 15 15 16 17 17 18 18 19 19 19 18
5 6 13 9 8 5 6 8 3 9 7 5 1 3 4 12 11 11 12 13 13 9 12 13 14 13 13 11 10 12 11 12 12 13 13 12 13 13 13 12 14 16 17 17 18 19 19 18 16
1 7 10 12 7 9 6 9 4 3 5 3 6 3 4 14 12 12 11 13 12 9 12 12 12 12 11 12 11 11 13 13 13 12 13 13 10 12 11 12 14 17 17 18 18 18 18 17 12
7 10 13 4 5 6 6 10 8 7 12 11 9 7 5 12 13 14 15 14 16 16 14 12 12 12 10 8 13 13 12 12 12 12 14 7 10 10 11 11 13 15 16 18 17 16 13 9 7
4 10 5 2 3 2 4 7 4 8 13 10 12 12 12 14 15 15 16 16 16 16 13 14 13 14 13 8 8 6 7 7 8 13 7 5 6 9 7 7 8 9 11 8 10 7 5 7 6
7 5 4 2 1 2 5 3 6 14 14 4 6 4 17 17 17 18 18 17 17 17 17 15 16 14 13 8 8 8 7 8 8 9 12 6 5 7 8 5 7 7 6 8 7 5 8 9 10
7 3 3 1 2 4 2 8 10 13 14 9 2 4 13 15 17 16 16 16 16 17 17 17 15 11 10 11 9 9 10 8 8 8 11 8 7 8 9 6 4 4 4 6 7 8 8 9 9
3 4 4 4 5 4 5 10 2 6 8 15 13 13 12 15 17 16 16 18 18 16 17 17 17 15 12 11 10 8 8 10 9 9 10 11 8 7 7 8 7 7 6 6 6 8 8 8 8
1 5 7 9 6 4 3 11 17 16 8 8 13 15 14 15 15 18 18 18 18 16 17 18 17 16 15 13 10 10 8 8 9 9 14 14 11 10 9 8 7 8 7 10 8 9 8 8 8
5 4 8 6 6 3 5 13 6 3 10 15 15 14 15 16 17 17 17 16 17 17 18 17 12 15 15 13 10 8 8 8 6 7 10 13 13 15 10 8 8 8 8 8 9 9 7 8 8
7 9 11 7 6 2 11 10 1 1 6 12 12 13 13 15 17 17 17 17 18 19 18 18 18 17 16 14 10 11 11 8 7 5 6 13 13 14 11 9 8 11 6 8 9 8 8 9 8
12 9 9 10 6 6 11 17 17 15 15 15 16 16 16 16 17 17 18 17 18 18 18 18 16 18 16 10 9 8 8 8 8 7 5 9 9 13 10 9 11 9 9 8 9 11 8 8 9
5 7 9 8 7 4 13 19 19 17 19 20 19 19 20 20 17 15 15 17 16 17 18 19 18 17 13 10 10 9 10 6 7 7 7 7 10 12 12 10 12 10 9 10 10 11 12 9 10
9 13 15 14 1 4 15 22 19 18 22 21 20 22 22 20 17 15 16 15 18 19 19 17 18 17 15 10 9 8 9 9 8 5 5 5 6 11 10 11 12 12 9 12 12 12 9 6 10
14 16 14 15 4 13 14 17 18 16 16 16 19 22 22 20 17 16 16 17 15 17 18 19 19 18 16 14 9 8 6 5 6 7 5 5 4 7 10 12 12 12 11 12 15 13 14 10 10
16 14 14 13 8 8 1 11 17 20 19 15 16 19 19 17 14 13 13 14 16 16 15 16 17 17 16 17 12 14 10 10 9 9 6 7 5 5 7 10 11 13 10 14 14 13 10 9 13
3 3 6 6 9 13 14 10 9 13 13 14 18 15 15 11 9 10 11 11 12 12 13 14 15 16 16 15 14 11 12 8 7 8 10 8 5 6 6 8 10 12 9 13 16 14 10 7 9
10 7 4 2 4 11 13 17 9 14 15 9 10 10 2 3 3 3 2 3 7 6 9 10 13 14 14 14 15 15 14 11 9 10 7 5 5 4 7 9 9 9 8 11 12 14 13 11 10
10 7 4 6 7 13 4 9 13 3 12 12 13 12 3 3 4 2 3 4 5 7 8 9 13 13 13 14 15 15 14 13 13 10 8 9 7 5 9 10 11 9 11 10 9 11 11 9 11
16 14 8 7 8 12 5 12 6 5 5 11 13 14 9 6 7 8 5 4 6 8 10 11 11 13 13 14 14 13 14 10 10 11 9 9 9 9 11 10 10 11 12 11 10 8 7 9 8
9 12 10 12 2 5 10 19 20 13 12 15 13 14 13 8 8 7 5 5 7 8 9 10 10 11 13 14 12 13 12 13 10 12 10 7 9 8 11 11 10 9 9 9 10 8 8 7 7
9 3 7 7 6 11 13 17 15 8 12 10 9 11 11 9 5 4 5 5 5 6 7 8 10 11 11 12 11 11 12 12 11 10 11 10 8 10 11 10 11 10 9 9 9 6 8 8 7
8 10 7 6 8 6 12 12 5 7 6 5 8 4 5 7 5 5 4 4 5 6 6 8 9 9 10 9 10 10 10 11 10 10 9 9 8 9 10 10 10 11 11 11 12 9 12 11 11
12 19 22 10 8 8 13 21 4 6 4 4 6 4 4 3 4 5 5 6 6 5 5 6 7 8 9 9 10 11 11 10 10 10 9 7 7 7 8 9 9 9 10 12 12 12 13 13 13
Wind_Direction
267 267 285 250 247 238 131 137 34 130 150 79 92 261 3 16 2 30 147 131 135 156 144 163 165 162 143 136 129 116 114 102 99 97 96 91 89 89 82 75 73 78 84 86 83 78 75 72 72
308 287 233 274 265 255 96 111 183 157 76 140 152 207 244 81 69 120 153 163 146 151 147 163 154 151 145 142 133 120 114 108 103 100 98 93 92 91 90 83 81 83 93 89 85 80 78 77 77
269 263 267 263 286 318 14 155 155 103 132 180 181 270 4 75 119 151 122 162 153 154 158 139 148 148 150 149 139 127 119 114 109 103 101 99 96 96 96 91 84 81 83 87 81 82 81 81 79
250 200 223 258 291 23 335 101 123 146 151 193 288 199 133 31 149 132 147 161 158 157 159 135 148 153 153 155 147 130 126 120 113 108 105 103 101 99 99 99 94 87 83 86 87 89 86 83 81
226 252 253 243 290 314 206 77 175 179 153 170 192 157 116 159 111 149 156 166 166 164 148 152 153 158 156 158 151 138 132 128 121 115 112 108 107 105 104 103 102 97 92 96 96 93 89 87 84
217 276 241 239 204 143 214 175 196 199 172 125 209 234 119 146 167 163 165 176 175 159 147 157 161 159 158 160 153 148 140 135 128 120 117 115 113 109 107 105 104 104 104 103 99 96 93 88 85
257 229 249 288 289 254 218 174 203 208 191 204 333 238 90 171 177 167 174 185 179 161 163 162 171 169 157 158 154 151 148 138 133 126 118 113 108 106 105 106 107 108 107 105 103 100 97 92 87
274 263 250 247 266 271 138 178 225 221 219 78 287 255 188 169 162 177 178 184 183 162 178 176 175 173 172 168 159 153 150 141 130 118 111 105 102 101 98 103 108 110 108 105 103 103 100 95 87
268 245 242 244 251 262 137 202 173 20 236 197 184 293 55 131 161 176 180 185 180 186 191 180 181 181 176 171 166 161 158 147 132 129 132 143 130 129 137 102 115 114 113 109 106 103 99 91 69
228 230 245 322 288 282 183 221 177 208 212 222 216 188 156 156 177 182 187 191 194 194 196 188 185 189 182 179 165 178 170 165 164 161 167 146 145 127 125 116 116 115 112 111 111 116 133 127 101
188 242 295 251 274 284 236 227 210 229 244 225 227 205 180 183 191 197 198 199 198 197 196 199 184 196 188 181 172 182 177 183 178 166 180 138 112 129 133 131 130 126 129 124 128 144 96 91 91
234 252 271 16 165 205 219 291 237 231 241 18 293 290 175 193 197 203 204 205 197 200 199 199 198 195 196 176 188 190 186 193 179 171 168 151 142 141 147 153 153 154 153 141 125 108 103 94 88
231 225 217 178 201 249 312 247 260 258 242 229 186 199 198 206 210 210 213 210 204 204 202 193 201 198 194 200 194 193 193 199 181 170 164 161 160 168 156 154 160 141 130 136 126 127 115 105 98
63 241 241 223 220 235 256 263 305 245 248 239 221 226 218 217 219 216 213 213 211 205 204 202 199 199 194 203 195 204 203 197 188 179 179 171 169 163 159 156 157 154 151 145 135 130 123 110 104
169 255 225 228 220 230 244 251 239 253 203 244 234 235 236 229 226 222 214 216 211 207 207 200 201 202 202 204 215 207 218 216 192 184 186 183 173 169 164 158 159 159 160 148 126 118 109 113 108
228 244 248 118 179 171 217 263 265 358 251 249 251 247 234 230 232 228 224 213 218 210 209 200 194 201 203 205 206 218 215 206 220 194 193 183 180 179 166 161 161 160 157 145 144 139 131 123 124
201 260 216 233 196 195 213 278 283 340 244 262 263 258 253 250 228 228 221 218 212 209 205 203 198 202 202 206 208 210 213 214 206 188 208 195 183 182 173 163 160 162 153 151 146 142 146 134 127
236 225 237 254 140 227 246 256 270 271 259 261 265 266 260 249 242 228 218 216 213 210 208 207 203 202 201 201 206 215 214 207 214 201 189 189 176 177 173 162 159 152 153 153 151 142 147 135 133
285 283 265 265 133 263 263 273 271 273 270 267 266 262 260 253 249 223 220 210 211 211 207 207 204 203 198 198 199 203 206 192 217 211 189 187 180 180 182 169 158 153 168 161 150 146 151 140 136
236 258 260 271 266 236 279 281 278 270 263 258 262 263 262 264 252 228 213 207 204 208 206 205 205 200 202 197 200 210 210 213 209 200 187 174 178 175 168 165 165 159 170 147 151 167 146 143 167
236 243 256 261 263 236 280 273 266 251 246 262 261 260 263 263 263 251 211 207 210 211 207 206 202 200 198 200 195 198 204 187 204 210 194 182 165 171 164 172 165 165 173 165 164 174 165 158 190
251 249 254 269 282 275 210 287 291 290 272 242 250 257 262 263 255 244 254 208 207 214 213 210 204 200 199 194 195 193 197 205 210 206 190 177 156 184 166 172 178 169 164 173 177 177 177 157 174
251 35 225 251 258 290 239 261 258 256 259 249 253 254 258 264 272 263 240 232 214 208 208 207 205 202 198 196 198 189 207 215 200 197 183 176 155 190 172 171 175 176 177 179 180 182 177 178 178
134 119 108 206 279 262 254 244 255 248 248 258 256 264 303 232 259 257 257 299 223 210 193 202 208 205 202 199 203 201 210 214 202 188 179 166 166 178 184 174 173 175 181 181 189 185 183 175 183
198 177 221 233 200 254 17 279 244 254 298 278 268 280 188 214 257 224 174 178 197 190 197 201 207 207 205 201 208 210 218 215 215 198 189 176 176 187 191 181 181 183 186 178 177 181 189 173 185
199 203 209 230 238 266 95 240 250 210 269 271 266 269 284 243 247 251 211 178 174 183 191 200 200 205 205 206 209 214 215 218 205 208 199 196 195 193 180 186 185 187 187 185 177 184 181 186 186
169 218 253 278 7 285 254 264 273 228 236 247 255 259 269 274 253 246 213 191 177 181 188 195 202 211 209 209 207 217 215 218 207 214 206 208 200 184 178 184 180 178 180 178 175 176 177 182 184
231 191 198 216 230 239 257 263 262 273 255 269 237 253 283 276 245 182 166 168 169 176 182 189 201 204 216 211 212 220 216 218 212 210 204 201 194 171 169 168 177 169 173 167 173 174 158 162 170
187 214 222 235 225 241 262 260 337 43 36 324 319 323 286 292 233 167 153 152 167 175 185 195 204 208 212 209 219 222 225 220 218 220 207 200 184 175 167 170 171 173 170 172 177 176 163 164 160
257 221 211 212 202 235 261 267 134 98 59 356 329 316 338 322 230 147 157 167 179 183 193 208 214 218 217 210 218 218 218 217 222 217 209 187 183 171 170 172 178 179 184 182 176 177 173 172 160